Location: Newark
(45.0500°N, 0.5014°W)
Time: 08:42:03
(UTC+00:00)

Envisat - Visible Passes

Search period start: 19 January 2020 00:00
Search period end: 29 January 2020 00:00
Orbit: 764 x 766 km, 98.1° (Epoch: 19 January)

Date Brightness Start Highest point End Pass type
(mag) Time Alt. Az. Time Alt. Az. Time Alt. Az.
19 Jan 3.6 06:36:06 10° NNE 06:41:10 63° ESE 06:46:12 10° S visible
19 Jan 3.1 17:52:30 10° SSE 17:57:35 83° WSW 18:02:41 10° NNW visible
19 Jan 6.4 19:36:35 10° W 19:37:23 10° W 19:38:10 10° WNW visible
20 Jan 5.1 05:59:46 10° NE 06:04:13 29° E 06:08:37 10° SSE visible
20 Jan 3.3 17:16:03 10° SE 17:20:53 47° ENE 17:25:45 10° N visible
20 Jan 5.4 18:56:09 10° SW 19:00:08 23° W 19:04:09 10° NW visible
21 Jan 6.2 05:24:28 10° ENE 05:27:03 14° E 05:29:37 10° ESE visible
21 Jan 3.0 07:01:33 10° N 07:06:40 77° WNW 07:11:43 10° SSW visible
21 Jan 4.0 18:18:13 10° S 18:23:07 49° W 18:28:03 10° NNW visible
22 Jan 4.1 06:24:53 10° NNE 06:29:51 50° E 06:34:46 10° S visible
22 Jan 3.0 17:41:14 10° SSE 17:46:18 79° ENE 17:51:24 10° N visible
22 Jan 6.2 19:23:29 10° WSW 19:25:55 13° W 19:28:23 10° WNW visible
23 Jan 5.5 05:48:45 10° NE 05:52:50 24° E 05:56:52 10° SE visible
23 Jan 5.1 18:44:23 10° SSW 18:48:45 29° W 18:53:08 10° NW visible
24 Jan 6.4 05:14:27 10° ENE 05:15:36 11° E 05:16:45 10° E visible
24 Jan 3.1 06:50:15 10° NNE 06:55:23 85° ESE 07:00:28 10° SSW visible
24 Jan 3.6 18:06:46 10° S 18:11:47 61° W 18:16:50 10° NNW visible
25 Jan 4.5 06:13:43 10° NNE 06:18:30 40° E 06:23:15 10° SSE visible
25 Jan 3.0 17:30:01 10° SSE 17:35:01 64° ENE 17:40:04 10° N visible
25 Jan 5.9 19:11:14 10° SW 19:14:29 17° W 19:17:47 10° NW visible
26 Jan 5.8 05:37:50 10° NE 05:41:25 19° E 05:45:00 10° SE visible
26 Jan 4.7 18:32:44 10° SSW 18:37:23 36° W 18:42:03 10° NNW visible
27 Jan 3.4 06:38:59 10° NNE 06:44:04 69° ESE 06:49:08 10° S visible
27 Jan 3.2 17:55:24 10° S 18:00:29 77° WSW 18:05:36 10° NNW visible
28 Jan 5.0 06:02:35 10° NNE 06:07:08 32° E 06:11:39 10° SSE visible
28 Jan 5.6 18:59:16 10° SW 19:03:05 21° W 19:06:55 10° NW visible
